ENBRENAL

Guest
Details From ENBR - Bergen Lufthavn Flesland
To ENAL - Alesund lufthavn - Vigra
Flight Number -
Tags generated
Created
Modified
Stats Distance 139 nm / 257 km
Max Altitude 7,400 ft / 2,256 m
Waypoints 3
Social Downloads 1
Likes 0
Share VATSIM

Download

Looking for another format? Having issues loading an existing format? Contact us
Advertisement - Login to hide

Notes

Basic altitude profile: - Ascent Rate: 2500ft/min - Ascent Speed: 250kts - Cruise Altitude: 35000ft - Cruise Speed: 420kts - Descent Rate: 1500ft/min - Descent Speed: 250kts Options: - Use NATs: yes - Use PACOTS: yes - Use low airways: no - Use high airways: yes

Route

ENBR AMKAR ENAL

ID Type Via Altitude Latitude Longitude Leg Dist Tot Dist Heading (true) Name
O ENBR APT - 0 ft / 0 m 60.29339˚ 5.21814˚ - 0 nm - Bergen Lufthavn Flesland
AMKAR FIX - 7,400 ft / 2,256 m 62.00000˚ 5.82556˚ 103 nm 103 nm 9° / 10° -
O ENAL APT - 0 ft / 0 m 62.56037˚ 6.11016˚ 34 nm 138 nm 13° / 13° Alesund lufthavn - Vigra

Altitude Profile

Advertisement - Login to hide

ENBR

Details ICAO ENBR (BGO)
Name Bergen Lufthavn Flesland
Region Norway
Timezone Europe/Oslo (UTC+2.0)
Stats Elevation 165 ft / 50 m (AMSL)
Location 60.293388° 5.218140°
Runways 1
Magnetic Variation 0.905° E

METAR

ENBR 240650Z 19011KT 9000 5000NE -RA BR VV003 06/06 Q0996 TEMPO 3000 RADZ BR RMK WIND 1200FT 20013KT

Decode

TAF

TAF ENBR 240500Z 2406/2506 20010KT 9999 -RA SCT004 BKN009 TEMPO 2406/2412 3000 RADZ BR OVC003 BECMG 2411/2414 FEW010 BKN020

Decode

Departure Runways

ID Width Length Bearing (true) Bearing (mag) Surface Threshold Offset Overrun Length
17 148 ft / 45 m 9,793 ft / 2,985 m 170.56° 169.66° Asphalt 886 ft / 270 m 0 ft / 0 m
35 148 ft / 45 m 9,793 ft / 2,985 m 350.57° 349.67° Asphalt 886 ft / 270 m 0 ft / 0 m

ENAL

Details ICAO ENAL (AES)
Name Alesund lufthavn - Vigra
Region Norway
Timezone Europe/Oslo (UTC+2.0)
Stats Elevation 69 ft / 21 m (AMSL)
Location 62.560371° 6.110165°
Runways 1
Magnetic Variation 1.231° E

METAR

ENAL 240650Z 22017KT 9999 FEW025 BKN035 08/05 Q0992

Decode

TAF

Not found

Destination Runways

ID Width Length Bearing (true) Bearing (mag) Surface Threshold Offset Overrun Length
07 148 ft / 45 m 7,563 ft / 2,305 m 64.61° 63.38° Asphalt 492 ft / 150 m 0 ft / 0 m
25 148 ft / 45 m 7,563 ft / 2,305 m 244.65° 243.42° Asphalt 758 ft / 231 m 0 ft / 0 m

Approach Navaids

Runway Type Ident Frequency Range Bearing (true) Bearing (mag) Slope Elevation
25 Localiser VGR 111.95 MHz 18 nm / 33 km 244.61° 243.38° - 72 ft / 22 m (AMSL)
25 Glidescope VGR 111.95 MHz 10 nm / 19 km 244.61° 243.38° 3.00° 18 ft / 5 m (AMSL)

Popular Alternatives